Overview Statistics Trail Chart Weather Telemetry Raw packets
 

This is the latest recevied weather packets stored in our database for station/object 4S6DRJ-13. If no packets are shown the sender has not sent any weather packets the latest 10 day(s).

<< 197 198 199 200 201 202 203 >>
Time Temp. Humidity Pressure Rain* Wind** Luminosity Snow
1788172806 30.56° C 74% 1006.9 hPa 0 mm 1.34 m/s, 224° 544 W/m² -
1788172745 30.56° C 74% 1007 hPa 0 mm 2.68 m/s, 160° 364 W/m² -
1788172684 30.56° C 74% 1006.9 hPa 0 mm 0.45 m/s, 276° 350 W/m² -
1788172623 30.56° C 74% 1006.9 hPa 0 mm 1.34 m/s, 225° 214 W/m² -
1788172562 30.56° C 74% 1006.9 hPa 0 mm 1.79 m/s, 210° 205 W/m² -
1788172501 30.56° C 74% 1007.1 hPa 0 mm 1.34 m/s, 191° 310 W/m² -
1788172449 30.56° C 74% 1006.7 hPa 0 mm 1.79 m/s, 258° 585 W/m² -
1788172378 30.56° C 73% 1006.9 hPa 0 mm 1.79 m/s, 241° 192 W/m² -
1788172317 30.56° C 74% 1006.9 hPa 0 mm 1.34 m/s, 212° 183 W/m² -
1788172256 30.56° C 74% 1006.8 hPa 0 mm 2.68 m/s, 204° 195 W/m² -
1788172195 30.56° C 74% 1006.8 hPa 0 mm 1.79 m/s, 281° 565 W/m² -
1788172134 30.56° C 74% 1007 hPa 0 mm 3.13 m/s, 287° 323 W/m² -
1788172073 30.56° C 74% 1006.8 hPa 0 mm 2.68 m/s, 226° 648 W/m² -
1788172012 30.56° C 74% 1006.8 hPa 0 mm 1.34 m/s, 184° 642 W/m² -
1788171951 30.56° C 73% 1007.1 hPa 0 mm 2.68 m/s, 296° 250 W/m² -
1788171890 30.56° C 73% 1006.9 hPa 0 mm 0.45 m/s, 112° 187 W/m² -
1788171829 30.56° C 72% 1007 hPa 0 mm 2.24 m/s, 307° 185 W/m² -
1788171768 31.11° C 72% 1006.9 hPa 0 mm 1.79 m/s, 219° 212 W/m² -
1788171707 31.11° C 72% 1006.9 hPa 0 mm 0.45 m/s, 193° 228 W/m² -
1788171661 31.11° C 72% 1006.9 hPa 0 mm 2.68 m/s, 219° 223 W/m² -
1788171585 30.56° C 72% 1007 hPa 0 mm 1.34 m/s, 266° 283 W/m² -
1788171525 30.56° C 72% 1007 hPa 0 mm 2.68 m/s, 319° 388 W/m² -
1788171463 30.56° C 72% 1006.9 hPa 0 mm 0.89 m/s, 296° 546 W/m² -
1788171402 30.56° C 71% 1006.9 hPa 0 mm 2.24 m/s, 271° 646 W/m² -
1788171341 30.56° C 71% 1007 hPa 0 mm 1.79 m/s, 64° 473 W/m² -

* Rain latest hour (hover to see other rain measurements)
** Current wind speed in m/s (hover to see current wind gust speed)